This is the latest recevied weather packets stored in our database for station/object LA1HSA-13. If no packets are shown the sender has not sent any weather packets the latest 10 day(s).
| Time | Temp. | Humidity | Pressure | Rain* | Wind** | Luminosity | Snow |
|---|---|---|---|---|---|---|---|
| 1777564803 | 22.22° C | 36% | 1025.1 hPa | 0 mm | - | - | - |
| 1777564203 | 22.78° C | 37% | 1025 hPa | 0 mm | - | - | - |
| 1777563603 | 22.78° C | 36% | 1025 hPa | 0 mm | - | - | - |
| 1777563004 | 22.78° C | 37% | 1025.1 hPa | 0 mm | - | - | - |
| 1777562403 | 22.78° C | 36% | 1025.1 hPa | 0 mm | - | - | - |
| 1777561803 | 23.33° C | 35% | 1025.1 hPa | 0 mm | - | - | - |
| 1777561203 | 22.78° C | 35% | 1025.2 hPa | 0 mm | - | - | - |
| 1777560603 | 22.78° C | 33% | 1025.2 hPa | 0 mm | - | - | - |
| 1777560003 | 23.33° C | 32% | 1025.1 hPa | 0 mm | - | - | - |
| 1777559404 | 23.33° C | 32% | 1025.4 hPa | 0 mm | - | - | - |
| 1777558803 | 23.89° C | 30% | 1025.6 hPa | 0 mm | - | - | - |
| 1777558204 | 23.89° C | 30% | 1025.5 hPa | 0 mm | - | - | - |
| 1777557603 | 23.89° C | 31% | 1025.5 hPa | 0 mm | - | - | - |
| 1777557003 | 23.33° C | 30% | 1025.8 hPa | 0 mm | - | - | - |
| 1777556403 | 23.33° C | 31% | 1026.1 hPa | 0 mm | - | - | - |
| 1777555803 | 23.33° C | 33% | 1026 hPa | 0 mm | - | - | - |
| 1777555204 | 23.33° C | 31% | 1026.2 hPa | 0 mm | - | - | - |
| 1777554603 | 23.33° C | 33% | 1026.4 hPa | 0 mm | - | - | - |
| 1777554004 | 23.33° C | 32% | 1026.2 hPa | 0 mm | - | - | - |
| 1777553403 | 22.78° C | 33% | 1026.3 hPa | 0 mm | - | - | - |
| 1777552803 | 22.22° C | 31% | 1026.4 hPa | 0 mm | - | - | - |
| 1777552204 | 22.78° C | 32% | 1026.5 hPa | 0 mm | - | - | - |
| 1777551603 | 22.78° C | 34% | 1026.8 hPa | 0 mm | - | - | - |
| 1777551003 | 22.22° C | 32% | 1026.7 hPa | 0 mm | - | - | - |
| 1777550403 | 21.67° C | 35% | 1026.6 hPa | 0 mm | - | - | - |
* Rain latest hour (hover to see other rain measurements)
** Current wind speed in m/s (hover to see current wind gust speed)